Regional Weather Roundup
Issued by NWS Sioux Falls, SD

Home | Current Version | Previous Version | Graphics & Text | Print | Product List | Glossary Off
Versions: 1 2 3 4 5 6 7 8 9 10 11 12 13 14 15 16 17 18 19 20 21 22 23 24 25 26 27 28 29 30 31 32 33 34 35 36 37 38 39 40 41 42 43 44 45 46 47 48 49 50

000
ASUS43 KFSD 270502
RWRFSD

WEATHER ROUNDUP FOR SE SOUTH DAKOTA/SW MINNESOTA/NW IOWA
NATIONAL WEATHER SERVICE SIOUX FALLS SD
1200 AM CDT TUE JUN 27 2017

NOTE: "FAIR" INDICATES FEW OR NO CLOUDS BELOW 12,000 FEET WITH NO
SIGNIFICANT WEATHER AND OR OBSTRUCTIONS TO VISIBILITY.


SDZ038>040-050-052>070-270600-
SOUTHEAST SOUTH DAKOTA

CITY           SKY/WX    TMP DP  RH WIND       PRES   REMARKS
BROOKINGS      CLEAR     53  41  63 CALM      30.14S
CHAMBERLAIN    CLEAR     54  43  66 E8        30.10S
HURON          CLEAR     54  42  64 SE7       30.11F
MADISON        FAIR      54  43  66 CALM      30.14F
MITCHELL       CLEAR     54  43  66 SE5       30.12F
SIOUX FALLS    CLEAR     54  48  80 CALM      30.14F
WINNER         FAIR      57  38  48 SE12      30.09F
YANKTON        CLEAR     58  43  57 CALM      30.14F
$$

MNZ071-072-080-081-089-090-097-098-270600-
SOUTHWEST MINNESOTA

CITY           SKY/WX    TMP DP  RH WIND       PRES   REMARKS
FAIRMONT       CLEAR     55  47  74 W3        30.15S
JACKSON        CLEAR     54  43  66 CALM      30.15F
LUVERNE        CLEAR     52  43  71 CALM      30.15S
MARSHALL       CLEAR     53  46  77 S5        30.14S
MONTEVIDEO     CLEAR     55  37  50 CALM      30.12F
PIPESTONE      CLEAR     57  41  54 CALM      30.15S
REDWOOD FALLS  CLEAR     56  43  61 CALM      30.13S
TRACY          CLEAR     56  44  64 SW3       30.14S
WINDOM         CLEAR     52  43  71 CALM      30.15S
WORTHINGTON    CLEAR     53  46  77 CALM      30.16S
$$

IAZ001>003-012>014-020>022-031-032-NEZ013-014-SDZ071-270600-
NORTHWEST IOWA

CITY           SKY/WX    TMP DP  RH WIND       PRES   REMARKS
CHEROKEE       CLEAR     52  49  89 CALM      30.16R
DENISON        CLEAR     52  48  87 CALM      30.17S
ESTHERVILLE    CLEAR     52  46  80 S6        30.14F
LE MARS        CLEAR     50  46  87 CALM      30.16S
ORANGE CITY    CLEAR     57  45  62 CALM      30.15F
SHELDON        CLEAR     50  46  87 CALM      30.14S
SIOUX CITY     CLEAR     51  46  83 CALM      30.15R
SPENCER        CLEAR     52  45  77 CALM      30.15F
STORM LAKE     CLEAR     55  41  58 E5        30.16S
$$

ABBREVIATIONS USED IN REMARKS
   TC - TEMPERATURE IN CELSIUS
  WCI - WIND CHILL INDEX
   HX - HEAT INDEX
  VSB - VISIBILITY





USA.gov is the U.S. government's official web portal to all federal, state and local government web resources and services.